Theta_e
339 335 332 332 332 327 328 327 326 328 329 327 325 322 319 317 315 311 311 311 311 309 307 306 305 306 305 303 302 301 300 300 296 298 300 302 303 301 302 304 306 304 305
337 335 333 333 333 327 327 327 330 329 328 325 324 321 319 316 313 313 311 312 309 306 305 304 306 308 303 302 301 300 299 300 297 295 298 300 301 300 300 300 303 306 304
335 334 333 333 332 327 327 326 332 329 325 325 322 318 315 313 310 312 312 309 308 306 304 304 305 304 300 299 299 298 298 299 297 295 295 298 298 299 298 299 300 300 305
336 334 333 332 332 330 329 327 331 328 325 318 315 315 312 312 312 312 310 308 307 307 305 306 304 302 299 297 297 296 296 296 296 295 294 293 295 297 297 295 298 300 299
336 336 335 333 332 331 331 330 329 325 318 316 312 311 310 311 311 310 309 307 305 304 305 305 304 304 307 305 300 296 297 295 295 294 293 293 293 294 294 295 295 297 299
334 334 335 335 333 332 330 329 325 318 316 313 312 311 309 307 306 308 309 307 306 305 302 304 305 304 303 305 305 306 305 296 293 294 293 292 292 294 295 295 295 294 293
336 336 336 335 332 330 329 324 317 315 314 311 310 310 301 301 302 303 306 307 305 306 305 304 302 301 298 297 299 304 306 308 303 296 293 293 294 295 297 295 294 294 294
336 335 335 333 329 327 323 318 316 314 312 310 308 302 300 301 300 300 303 305 306 306 304 303 299 295 295 294 296 299 297 298 296 298 295 296 297 298 297 297 296 295 296
334 333 333 331 326 322 318 317 315 312 310 310 305 302 300 299 299 299 302 303 305 305 303 302 301 295 296 297 297 296 293 294 303 303 302 301 300 300 300 294 293 293 292
330 330 330 327 322 320 317 315 313 311 311 308 305 304 303 299 299 298 299 302 301 304 301 300 303 296 296 296 294 293 291 292 293 294 296 298 298 301 304 297 295 294 293
329 328 325 322 320 318 316 312 312 311 311 309 307 304 301 299 298 298 300 299 298 300 303 296 294 297 296 296 295 291 293 293 294 292 294 294 294 296 298 298 298 298 295
327 323 321 319 318 314 311 311 310 310 309 308 305 302 301 300 299 297 298 299 299 296 302 298 295 296 295 296 295 296 297 296 293 294 293 293 293 294 297 299 298 300 299
323 318 317 314 313 310 309 309 309 309 307 305 304 301 300 301 300 299 297 297 297 297 300 299 296 295 295 295 296 296 297 293 293 294 293 293 294 295 295 296 298 299 298
317 316 312 310 309 310 310 309 308 307 306 305 303 301 301 300 299 298 299 297 297 297 300 298 296 295 295 296 298 297 296 294 295 295 294 295 296 296 294 295 295 295 295
310 310 309 308 308 308 308 308 308 308 307 304 302 300 300 300 300 299 297 297 295 295 297 296 294 294 294 294 295 297 298 297 297 297 298 295 296 296 295 296 296 294 293
307 306 306 306 307 307 306 305 299 300 298 297 297 300 301 300 297 296 295 295 295 296 292 294 297 296 296 297 297 298 299 299 296 297 295 295 295 295 295 296 295 294 292
306 305 305 305 306 305 305 304 301 298 297 296 297 297 297 299 295 294 294 292 292 293 291 293 296 297 300 296 296 295 297 298 297 297 296 296 296 296 296 295 295 295 294
306 302 305 305 306 306 305 304 303 301 299 299 295 298 295 294 293 293 292 292 290 290 292 293 295 297 298 297 296 296 296 297 296 298 297 296 296 296 296 295 295 295 294
304 305 306 305 305 304 303 301 301 300 299 298 296 293 294 293 292 292 292 293 292 291 292 292 294 295 298 298 298 297 297 297 297 297 296 296 297 296 296 296 296 291 292
305 302 302 304 302 302 301 300 300 300 299 297 296 295 292 291 292 291 291 293 293 293 294 295 295 296 299 299 299 299 298 298 297 297 297 299 298 298 297 296 296 295 295
306 304 297 304 302 302 301 301 301 299 298 298 297 297 290 294 293 293 292 294 293 294 295 296 297 299 301 301 300 299 298 298 298 299 299 298 298 297 297 297 297 298 297
307 305 304 304 302 302 301 301 301 300 299 299 300 297 289 295 296 296 296 295 296 297 299 298 298 299 301 301 300 300 299 298 298 298 298 297 298 300 298 298 297 297 297
307 305 305 304 303 298 300 303 302 301 300 300 301 300 295 297 298 299 299 300 300 300 300 300 299 300 301 301 301 301 299 298 298 299 298 298 299 299 299 298 300 299 295
308 305 305 305 304 304 302 302 301 297 301 302 302 302 298 300 301 301 302 302 303 302 302 302 301 301 301 301 301 301 301 301 300 300 301 299 299 297 299 300 300 299 296
309 308 307 306 304 303 301 302 302 303 303 303 302 301 301 301 302 304 303 302 303 304 303 303 303 303 303 302 302 303 298 292 299 297 302 301 301 301 301 299 299 298 295
305 304 303 303 302 302 302 302 301 302 302 304 303 303 302 303 303 302 300 300 300 301 303 303 304 303 303 304 304 299 293 292 294 289 301 302 302 300 298 298 298 296 294
Wind_Speed
12 11 12 10 12 11 11 12 10 10 14 13 12 11 10 9 7 7 7 6 7 5 5 6 5 5 4 4 4 3 4 3 2 4 2 4 4 5 6 5 6 5 6
12 12 13 12 13 9 11 13 7 12 12 13 11 11 11 9 7 6 6 6 5 7 6 6 6 5 5 5 4 6 4 4 3 3 3 4 4 4 5 5 5 7 6
15 14 12 12 11 9 7 9 10 14 13 11 10 11 12 9 7 6 6 7 9 7 6 6 6 6 5 4 4 4 3 3 3 2 4 2 3 3 4 4 5 6 6
18 17 16 15 15 13 10 8 12 13 13 11 11 11 10 9 6 4 6 6 8 6 6 7 6 5 6 4 4 4 4 4 3 4 3 3 2 4 2 3 7 5 5
17 18 17 17 15 14 12 12 13 12 12 13 12 11 10 8 4 5 5 9 7 4 3 6 6 7 8 3 1 3 4 3 2 3 3 3 3 4 4 3 3 4 6
17 14 16 17 17 15 13 13 13 14 13 13 12 13 10 7 9 11 6 6 5 4 3 5 4 8 7 6 7 8 8 6 2 1 2 2 5 3 3 3 3 4 5
15 13 16 17 16 15 15 15 16 16 15 13 12 12 11 9 14 11 6 2 7 7 6 5 5 4 5 4 7 9 6 7 6 4 2 4 4 4 3 5 4 3 3
11 13 14 15 14 14 15 17 17 14 14 14 13 14 12 8 11 6 9 5 5 5 6 7 7 4 4 4 5 5 4 2 2 2 3 7 6 8 4 4 4 4 4
14 14 15 15 16 16 17 17 16 15 13 13 14 15 15 10 11 7 7 5 3 5 6 6 6 5 3 1 3 3 5 5 6 8 10 12 14 15 4 0 4 2 4
15 14 13 15 16 16 16 15 12 14 14 13 14 12 16 12 11 12 8 4 2 4 4 5 10 7 6 3 3 2 3 5 6 10 11 10 7 5 4 5 2 2 3
16 15 13 12 13 14 14 14 14 14 14 13 13 11 13 11 9 12 11 4 3 3 5 5 4 8 8 7 4 2 5 5 7 5 5 4 4 4 4 5 3 4 3
16 16 15 16 12 11 15 13 14 15 15 13 12 9 7 7 12 10 11 6 6 5 8 6 5 10 9 8 5 8 11 5 4 4 2 3 3 3 5 5 5 4 2
15 16 15 15 14 16 16 14 13 14 12 11 10 9 9 6 5 11 9 10 8 5 5 8 10 12 10 6 8 12 6 2 3 2 2 3 3 4 4 5 6 5 6
15 14 13 15 14 12 10 11 13 13 12 11 10 9 9 6 6 4 4 7 6 5 5 6 7 7 6 5 5 7 4 4 4 3 3 3 3 3 4 3 2 4 3
12 12 11 10 12 12 10 11 12 11 12 12 10 10 10 8 7 9 9 6 5 6 5 2 1 3 3 4 5 5 5 4 4 2 1 1 3 3 3 3 3 3 3
11 9 9 10 10 10 10 9 10 10 14 11 14 11 8 9 13 16 16 12 11 10 2 3 4 5 5 6 5 5 5 6 4 3 2 1 1 2 3 4 2 2 2
12 11 9 11 10 11 11 11 11 6 8 13 13 11 10 9 16 17 15 12 11 9 4 4 4 5 7 6 6 4 5 5 4 3 3 4 3 2 2 3 3 2 3
9 15 11 10 11 11 11 12 11 11 11 7 4 8 11 10 14 18 16 11 3 1 4 5 5 5 5 5 5 4 3 3 4 3 4 4 3 3 3 3 2 2 2
9 9 10 10 10 10 9 9 8 8 6 6 3 3 8 14 21 19 18 7 6 5 5 5 5 5 5 5 5 4 5 4 3 3 4 4 4 4 4 4 3 4 3
9 12 11 11 12 12 11 10 8 7 9 8 7 8 7 7 9 8 6 5 5 5 5 6 6 5 5 5 5 5 5 5 4 5 6 6 5 5 5 5 4 3 4
10 11 8 9 11 11 11 13 12 12 11 10 9 8 11 9 8 9 8 7 5 5 5 5 5 5 6 6 6 6 6 5 5 5 5 5 5 4 5 4 4 5 5
10 10 10 9 10 11 11 11 10 11 11 10 9 10 15 9 9 9 9 9 8 9 8 6 6 6 6 6 6 5 6 6 5 5 5 5 4 5 3 3 5 5 5
10 11 10 10 11 10 10 11 10 10 10 10 11 10 11 11 10 10 10 10 9 10 9 8 7 7 6 6 6 6 6 6 7 6 5 5 5 3 3 5 4 3 3
10 12 11 10 9 9 10 9 8 8 9 10 10 11 12 13 12 13 12 10 10 10 10 9 8 9 7 7 6 6 6 6 6 6 8 6 5 6 5 4 4 4 3
8 11 13 9 8 9 9 6 4 6 4 7 7 9 12 13 12 11 11 11 10 12 13 12 10 14 13 13 10 11 10 11 10 8 6 5 4 7 4 3 4 3 4
8 9 6 7 7 6 7 8 6 4 5 10 6 7 10 11 11 9 7 6 5 6 10 10 11 13 13 12 14 14 12 13 11 9 6 5 5 5 5 5 6 4 6
Wind_Direction
170 173 161 170 183 177 175 183 182 166 165 158 153 142 127 121 118 113 128 127 150 117 100 85 70 72 56 33 28 31 26 70 52 312 295 311 44 15 357 351 337 336 326
167 170 174 176 180 169 182 185 161 162 161 152 147 138 130 123 131 143 108 132 115 98 90 76 70 79 62 41 21 14 29 25 67 329 308 349 12 348 320 343 345 340 331
172 173 174 176 176 176 171 180 153 153 152 149 139 131 127 129 125 108 155 120 107 117 118 93 99 83 57 44 33 28 359 359 15 44 312 316 309 317 335 333 337 322 334
178 177 180 180 178 176 169 170 156 154 142 128 128 128 124 106 120 164 130 116 110 123 123 125 117 106 97 52 37 6 357 349 356 4 351 319 305 309 344 339 344 335 327
182 175 176 175 172 177 175 162 152 140 131 132 122 112 110 112 134 124 125 106 98 138 143 133 130 131 114 101 63 309 307 296 344 334 341 322 314 336 321 300 331 311 316
184 179 169 165 168 173 162 148 134 129 136 130 131 126 114 104 96 65 76 89 116 131 139 112 91 83 66 37 359 324 270 228 210 166 278 302 284 292 307 307 316 344 328
170 165 165 167 165 166 147 138 139 141 139 138 128 117 107 103 82 70 89 117 139 114 101 136 108 82 64 24 348 339 359 84 170 167 260 259 280 277 286 307 311 306 273
156 162 163 165 160 153 149 145 143 148 149 138 127 121 114 112 116 130 78 54 79 125 146 127 136 139 63 20 356 357 21 17 353 326 236 274 263 284 234 241 254 285 293
160 159 161 159 153 155 151 153 147 139 139 134 134 135 133 134 142 130 93 89 1 187 164 136 138 126 153 322 71 13 355 333 331 328 317 301 295 296 267 272 312 11 293
141 149 152 151 156 153 149 146 141 138 136 139 137 144 137 136 155 129 124 107 312 244 155 125 139 143 178 196 120 60 351 289 332 339 337 331 326 338 177 206 197 260 266
135 133 132 135 139 143 141 138 140 138 136 141 143 141 133 145 145 123 127 143 234 295 169 167 173 166 199 215 182 200 238 287 331 333 308 301 334 335 306 298 256 205 264
126 128 131 135 134 131 134 139 141 141 144 140 135 133 142 137 148 143 137 206 250 256 190 173 168 198 216 225 225 244 256 326 338 318 351 318 302 318 313 320 327 335 252
127 132 132 131 137 142 141 143 140 144 145 143 145 151 148 158 150 142 150 232 253 270 144 162 179 203 218 237 254 260 270 307 309 317 297 277 256 265 307 338 341 340 347
127 132 130 135 139 144 144 151 150 154 152 152 151 147 145 149 161 172 172 225 212 244 161 173 190 195 202 234 261 268 244 229 224 220 241 273 310 347 328 341 336 339 3
114 126 131 137 144 143 149 155 157 162 160 156 157 155 158 171 182 176 193 199 196 207 160 121 177 227 234 257 256 241 255 247 219 222 221 0 351 352 333 332 353 354 12
128 131 139 139 140 140 138 122 63 118 123 119 137 151 175 176 172 178 189 192 192 174 121 181 213 216 219 234 240 245 211 202 213 193 163 163 289 323 333 335 340 6 352
141 141 141 143 144 147 147 147 140 95 133 152 159 173 180 175 184 184 178 178 178 140 176 202 219 226 239 208 200 191 187 206 201 174 187 219 234 303 344 314 318 327 319
145 148 149 151 150 149 154 157 157 165 171 181 209 199 224 227 193 170 163 131 129 226 186 195 218 233 246 193 195 200 178 168 194 177 211 229 223 226 262 283 341 239 295
153 157 156 152 152 149 147 149 148 151 165 189 151 161 230 208 183 163 161 169 175 200 209 219 224 237 240 218 190 182 168 184 211 238 234 235 229 225 248 236 219 266 297
168 170 166 160 158 155 152 152 153 174 184 186 181 176 150 147 160 168 182 184 186 198 202 217 231 228 230 218 177 170 182 208 230 239 244 235 240 230 233 229 210 227 244
171 175 176 169 165 163 166 171 180 180 186 177 178 167 160 162 171 177 188 202 204 214 218 221 231 240 242 211 186 182 193 214 225 237 235 233 240 223 224 212 218 229 232
170 169 169 175 171 171 175 185 191 177 180 176 174 173 170 179 184 189 196 203 211 219 222 213 229 229 230 195 186 190 201 213 231 242 242 231 214 225 198 202 219 236 244
160 167 177 167 184 180 181 198 176 176 179 187 196 189 179 194 194 200 202 206 209 217 219 218 223 232 210 205 181 184 194 210 216 215 236 234 227 236 208 222 229 246 238
162 167 175 185 191 178 201 185 176 178 180 208 206 192 182 193 199 207 211 208 210 214 213 215 222 220 219 211 207 208 208 217 213 218 211 212 221 200 215 202 225 242 205
169 174 180 180 159 171 172 148 124 122 148 238 188 184 187 195 196 206 211 206 205 213 213 211 218 224 214 211 211 213 216 212 214 215 213 205 227 247 216 211 239 233 176
113 114 115 124 124 120 118 121 101 96 240 272 191 187 175 189 201 210 210 203 206 200 202 205 205 203 209 216 218 220 216 220 219 216 202 194 206 225 207 221 242 187 159